Location: Caltech
(34.1382°N, 118.1253°W)
Time: 18:48:14
(UTC-08:00)

Cosmos 2333 Rocket - Visible Passes

Search period start: 20 February 2017 00:00
Search period end: 02 March 2017 00:00
Orbit: 840 x 862 km, 70.8° (Epoch: 20 February)

Date Brightness Start Highest point End Pass type
(mag) Time Alt. Az. Time Alt. Az. Time Alt. Az.
20 Feb 4.7 20:14:06 10° N 20:14:12 10° N 20:14:12 10° N visible
21 Feb 4.4 20:01:48 10° N 20:02:36 13° N 20:02:36 13° N visible
22 Feb 4.1 19:49:29 10° N 19:51:05 17° NNE 19:51:05 17° NNE visible
23 Feb 3.8 19:37:11 10° N 19:39:38 21° NNE 19:39:38 21° NNE visible
23 Feb 4.9 21:21:08 10° NW 21:21:40 13° NW 21:21:40 13° NW visible
24 Feb 3.5 19:24:53 10° N 19:28:17 25° NE 19:28:17 25° NE visible
24 Feb 4.6 21:08:49 10° NW 21:10:20 18° NW 21:10:20 18° NW visible
25 Feb 3.2 19:12:35 10° N 19:17:03 27° NE 19:17:03 27° NE visible
25 Feb 4.2 20:56:30 10° NW 20:59:07 24° WNW 20:59:07 24° WNW visible
26 Feb 3.1 19:00:16 10° N 19:05:08 28° ENE 19:05:59 27° ENE visible
26 Feb 3.8 20:44:11 10° NW 20:48:02 32° WNW 20:48:02 32° WNW visible
27 Feb 3.1 18:47:58 10° N 18:52:50 28° ENE 18:55:04 21° E visible
27 Feb 3.5 20:31:53 10° NW 20:37:04 36° WSW 20:37:10 36° WSW visible
28 Feb 3.1 18:35:39 10° N 18:40:31 28° ENE 18:44:25 14° ESE visible
28 Feb 3.5 20:19:35 10° NW 20:24:46 36° WSW 20:26:31 29° SW visible
01 Mar 3.1 18:23:21 10° N 18:28:13 27° ENE 18:33:03 10° ESE visible
01 Mar 3.6 20:07:16 10° NW 20:12:28 36° WSW 20:16:13 17° SSW visible
